TimeMST,TemperatureF,Dew PointF,Humidity,Sea Level PressureIn,VisibilityMPH,Wind Direction,Wind SpeedMPH,Gust SpeedMPH,PrecipitationIn,Events,Conditions,WindDirDegrees,DateUTC
12:15 AM,-5.8,-7.6,92,30.41,10.0,East,3.5,-,N/A,,Clear,90,2013-01-06 07:15:00
12:35 AM,-5.8,-9.4,84,30.41,10.0,East,6.9,-,N/A,,Clear,90,2013-01-06 07:35:00
1:15 AM,-5.8,-9.4,84,30.41,10.0,East,4.6,-,N/A,,Clear,100,2013-01-06 08:15:00
1:35 AM,-5.8,-9.4,84,30.41,10.0,East,5.8,-,N/A,,Clear,100,2013-01-06 08:35:00
1:55 AM,-7.6,-9.4,92,30.41,10.0,Calm,Calm,-,N/A,,Clear,0,2013-01-06 08:55:00
2:15 AM,-7.6,-11.2,84,30.42,10.0,Calm,Calm,-,N/A,,Clear,0,2013-01-06 09:15:00
2:35 AM,-7.6,-9999,N/A,30.42,10.0,Calm,Calm,-,N/A,,Clear,0,2013-01-06 09:35:00
2:55 AM,-7.6,-11.2,84,30.41,10.0,Calm,Calm,-,N/A,,Clear,0,2013-01-06 09:55:00
3:15 AM,-9.4,-13.0,84,30.41,10.0,Calm,Calm,-,N/A,,Clear,0,2013-01-06 10:15:00
3:35 AM,-9.4,-13.0,84,30.41,10.0,East,3.5,-,N/A,,Clear,90,2013-01-06 10:35:00
3:55 AM,-9.4,-13.0,84,30.40,10.0,East,5.8,-,N/A,,Clear,90,2013-01-06 10:55:00
4:15 AM,-11.2,-14.8,84,30.40,10.0,East,8.1,-,N/A,,Clear,90,2013-01-06 11:15:00
4:35 AM,-9.4,-13.0,84,30.39,10.0,ESE,4.6,-,N/A,,Clear,110,2013-01-06 11:35:00
4:55 AM,-9.4,-14.8,77,30.39,10.0,Calm,Calm,-,N/A,,Clear,0,2013-01-06 11:55:00
5:35 AM,-9.4,-14.8,77,30.39,10.0,Calm,Calm,-,N/A,,Clear,0,2013-01-06 12:35:00
5:55 AM,-11.2,-14.8,84,30.40,10.0,Calm,Calm,-,N/A,,Clear,0,2013-01-06 12:55:00
6:15 AM,-11.2,-16.6,77,30.40,10.0,Calm,Calm,-,N/A,,Clear,0,2013-01-06 13:15:00
6:35 AM,-11.2,-16.6,77,30.39,10.0,Calm,Calm,-,N/A,,Clear,0,2013-01-06 13:35:00
6:50 AM,-11.2,-16.6,77,30.40,10.0,Calm,Calm,-,N/A,,Clear,0,2013-01-06 13:50:00
7:05 AM,-13.0,-16.6,84,30.40,10.0,Calm,Calm,-,N/A,,Clear,0,2013-01-06 14:05:00
7:50 AM,-13.0,-16.6,84,30.40,10.0,Calm,Calm,-,N/A,,Clear,0,2013-01-06 14:50:00
8:50 AM,-11.2,-14.8,84,30.40,10.0,Calm,Calm,-,N/A,,Clear,0,2013-01-06 15:50:00
9:50 AM,-5.8,-9.4,84,30.39,10.0,Calm,Calm,-,N/A,,Partly Cloudy,0,2013-01-06 16:50:00
10:50 AM,-2.2,-7.6,78,30.35,10.0,Calm,Calm,-,N/A,,Mostly Cloudy,0,2013-01-06 17:50:00
11:50 AM,3.2,-2.2,78,30.29,10.0,Calm,Calm,-,N/A,,Mostly Cloudy,0,2013-01-06 18:50:00
12:50 PM,8.6,1.4,73,30.23,10.0,Calm,Calm,-,N/A,,Mostly Cloudy,0,2013-01-06 19:50:00
1:50 PM,12.2,3.2,67,30.19,10.0,Calm,Calm,-,N/A,,Mostly Cloudy,0,2013-01-06 20:50:00
2:50 PM,15.8,3.2,58,30.15,10.0,Calm,Calm,-,N/A,,Mostly Cloudy,0,2013-01-06 21:50:00
3:50 PM,14.0,3.2,62,30.15,10.0,Calm,Calm,-,N/A,,Mostly Cloudy,0,2013-01-06 22:50:00
4:50 PM,14.0,3.2,62,30.14,10.0,Calm,Calm,-,N/A,,Mostly Cloudy,0,2013-01-06 23:50:00
5:50 PM,12.2,5.0,73,30.13,10.0,Calm,Calm,-,N/A,,Mostly Cloudy,0,2013-01-07 00:50:00
6:50 PM,12.2,5.0,73,30.13,10.0,Calm,Calm,-,N/A,,Mostly Cloudy,0,2013-01-07 01:50:00
7:50 PM,10.4,3.2,73,30.13,10.0,Calm,Calm,-,N/A,,Mostly Cloudy,0,2013-01-07 02:50:00
8:50 PM,8.6,3.2,79,30.12,10.0,Calm,Calm,-,N/A,,Partly Cloudy,0,2013-01-07 03:50:00
9:50 PM,6.8,1.4,79,30.13,10.0,Calm,Calm,-,N/A,,Clear,0,2013-01-07 04:50:00
10:50 PM,6.8,1.4,79,30.13,10.0,Calm,Calm,-,N/A,,Clear,0,2013-01-07 05:50:00
10:55 PM,6.8,1.4,79,30.13,10.0,Calm,Calm,-,N/A,,Clear,0,2013-01-07 05:55:00
11:15 PM,5.0,1.4,85,30.13,10.0,Calm,Calm,-,N/A,,Clear,0,2013-01-07 06:15:00
11:35 PM,3.2,-0.4,85,30.14,10.0,ESE,3.5,-,N/A,,Clear,110,2013-01-07 06:35:00
11:55 PM,3.2,-0.4,85,30.14,10.0,East,6.9,-,N/A,,Clear,80,2013-01-07 06:55:00